| time (UTC) | temp C | wind direction | speed KPH | gust KPH | rain 1hr cm | rain 24hr cm | rain mn cm | humidity % | barometer mb |
| 20260904190110 | 25 | 334 | 6.4 | 8.0 | 0.00 | 0.00 | 0.00 | 49 | 1023.1 |
| 20260904184605 | 25 | 314 | 4.8 | 8.0 | 0.00 | 0.00 | 0.00 | 52 | 1023.1 |
| 20260904183102 | 26 | 325 | 3.2 | 8.0 | 0.00 | 0.00 | 0.00 | 51 | 1023.0 |
| 20260904181559 | 26 | 345 | 4.8 | 9.7 | 0.00 | 0.00 | 0.00 | 49 | 1022.8 |
| 20260904180104 | 27 | 331 | 4.8 | 8.0 | 0.00 | 0.00 | 0.00 | 43 | 1022.7 |
| 20260904174601 | 27 | 0 | 0.0 | 3.2 | 0.00 | 0.00 | 0.00 | 43 | 1022.5 |
| 20260904173126 | 28 | 0 | 0.0 | 1.6 | 0.00 | 0.00 | 0.00 | 43 | 1022.6 |
| 20260904171611 | 28 | 0 | 0.0 | 6.4 | 0.00 | 0.00 | 0.00 | 44 | 1022.6 |
| 20260904170105 | 28 | 0 | 0.0 | 6.4 | 0.00 | 0.00 | 0.00 | 45 | 1022.6 |
| 20260904164601 | 29 | 41 | 1.6 | 4.8 | 0.00 | 0.00 | 0.00 | 44 | 1022.7 |
| 20260904163108 | 30 | 0 | 0.0 | 1.6 | 0.00 | 0.00 | 0.00 | 45 | 1022.8 |
| 20260904161605 | 30 | 157 | 0.0 | 9.7 | 0.00 | 0.00 | 0.00 | 44 | 1022.8 |
| 20260904160054 | 30 | 176 | 1.6 | 14.5 | 0.00 | 0.00 | 0.00 | 43 | 1022.9 |
| 20260904154601 | 31 | 194 | 6.4 | 20.9 | 0.00 | 0.00 | 0.00 | 40 | 1022.8 |
| 20260904153059 | 32 | 198 | 4.8 | 14.5 | 0.00 | 0.00 | 0.00 | 39 | 1022.9 |
| 20260904151616 | 32 | 128 | 4.8 | 12.9 | 0.00 | 0.00 | 0.00 | 38 | 1022.9 |
| 20260904150125 | 32 | 188 | 1.6 | 14.5 | 0.00 | 0.00 | 0.00 | 40 | 1022.9 |
| 20260904144601 | 32 | 267 | 1.6 | 12.9 | 0.00 | 0.00 | 0.00 | 41 | 1023.0 |
| 20260904143113 | 32 | 121 | 3.2 | 14.5 | 0.00 | 0.00 | 0.00 | 42 | 1023.2 |
| 20260904141615 | 32 | 41 | 8.0 | 17.7 | 0.00 | 0.00 | 0.00 | 40 | 1023.4 |
| 20260904140121 | 32 | 127 | 4.8 | 14.5 | 0.00 | 0.00 | 0.00 | 40 | 1023.4 |
| 20260904134620 | 32 | 130 | 4.8 | 17.7 | 0.00 | 0.00 | 0.00 | 40 | 1023.4 |
| 20260904133110 | 32 | 128 | 8.0 | 17.7 | 0.00 | 0.00 | 0.00 | 37 | 1023.6 |
| 20260904131601 | 32 | 180 | 6.4 | 17.7 | 0.00 | 0.00 | 0.00 | 39 | 1023.6 |
| 20260904130109 | 32 | 120 | 3.2 | 16.1 | 0.00 | 0.00 | 0.00 | 38 | 1023.7 |
| 20260904124602 | 32 | 172 | 4.8 | 14.5 | 0.00 | 0.00 | 0.00 | 39 | 1023.7 |
| 20260904123107 | 32 | 113 | 6.4 | 20.9 | 0.00 | 0.00 | 0.00 | 39 | 1024.0 |
| 20260904121559 | 32 | 88 | 6.4 | 14.5 | 0.00 | 0.00 | 0.00 | 39 | 1024.1 |
| 20260904120107 | 32 | 120 | 6.4 | 16.1 | 0.00 | 0.00 | 0.00 | 40 | 1024.2 |
| 20260904114556 | 32 | 0 | 3.2 | 16.1 | 0.00 | 0.00 | 0.00 | 39 | 1024.2 |
| 20260904113054 | 32 | 0 | 3.2 | 16.1 | 0.00 | 0.00 | 0.00 | 39 | 1024.2 |
| 20260904111606 | 32 | 146 | 6.4 | 12.9 | 0.00 | 0.00 | 0.00 | 38 | 1024.4 |
| 20260904104557 | 31 | 0 | 4.8 | 14.5 | 0.00 | 0.00 | 0.00 | 40 | 1024.4 |
| 20260904103105 | 31 | 127 | 4.8 | 14.5 | 0.00 | 0.00 | 0.00 | 41 | 1024.4 |
| 20260904101602 | 31 | 121 | 1.6 | 12.9 | 0.00 | 0.00 | 0.00 | 43 | 1024.5 |
| 20260904100104 | 31 | 159 | 1.6 | 11.3 | 0.00 | 0.00 | 0.00 | 43 | 1024.8 |
| 20260904094605 | 31 | 92 | 1.6 | 6.4 | 0.00 | 0.00 | 0.00 | 42 | 1024.9 |
| 20260904093109 | 30 | 0 | 0.0 | 6.4 | 0.00 | 0.00 | 0.00 | 38 | 1024.9 |
| 20260904091559 | 30 | 121 | 1.6 | 6.4 | 0.00 | 0.00 | 0.00 | 42 | 1025.0 |
| 20260904090104 | 30 | 106 | 0.0 | 4.8 | 0.00 | 0.00 | 0.00 | 46 | 1025.0 |
| 20260904084603 | 29 | 100 | 0.0 | 3.2 | 0.00 | 0.00 | 0.00 | 48 | 1025.0 |
| 20260904083100 | 28 | 0 | 0.0 | 4.8 | 0.00 | 0.00 | 0.00 | 49 | 1024.9 |
| 20260904081555 | 28 | 90 | 0.0 | 4.8 | 0.00 | 0.00 | 0.00 | 51 | 1024.8 |
| 20260904080054 | 27 | 0 | 0.0 | 4.8 | 0.00 | 0.00 | 0.00 | 53 | 1024.8 |
| 20260904074600 | 26 | 106 | 1.6 | 3.2 | 0.00 | 0.00 | 0.00 | 55 | 1024.7 |
| 20260904073058 | 25 | 103 | 0.0 | 3.2 | 0.00 | 0.00 | 0.00 | 59 | 1024.7 |
| 20260904071559 | 25 | 0 | 0.0 | 4.8 | 0.00 | 0.00 | 0.00 | 62 | 1024.8 |
| 20260904070059 | 25 | 89 | 0.0 | 3.2 | 0.00 | 0.00 | 0.00 | 65 | 1024.6 |
| 20260904064601 | 23 | 86 | 0.0 | 3.2 | 0.00 | 0.00 | 0.00 | 66 | 1024.6 |
| 20260904063116 | 22 | 82 | 0.0 | 3.2 | 0.00 | 0.00 | 0.00 | 68 | 1024.6 |
| 20260904061555 | 21 | 355 | 0.0 | 1.6 | 0.00 | 0.00 | 0.00 | 71 | 1024.5 |
| 20260904060055 | 21 | 0 | 0.0 | 3.2 | 0.00 | 0.00 | 0.00 | 69 | 1024.5 |
| 20260904054554 | 21 | 0 | 0.0 | 3.2 | 0.00 | 0.00 | 0.00 | 72 | 1024.5 |
| 20260904053058 | 21 | 0 | 1.6 | 4.8 | 0.00 | 0.00 | 0.00 | 71 | 1024.5 |
| 20260904051605 | 20 | 0 | 0.0 | 3.2 | 0.00 | 0.00 | 0.00 | 69 | 1024.3 |
| 20260904050058 | 20 | 5 | 3.2 | 4.8 | 0.00 | 0.00 | 0.00 | 70 | 1024.3 |
| 20260904044554 | 20 | 0 | 0.0 | 3.2 | 0.00 | 0.00 | 0.00 | 70 | 1024.2 |
| 20260904043103 | 20 | 0 | 0.0 | 3.2 | 0.00 | 0.00 | 0.00 | 70 | 1024.4 |
| 20260904041600 | 20 | 0 | 0.0 | 1.6 | 0.00 | 0.00 | 0.00 | 69 | 1024.4 |
| 20260904040105 | 20 | 0 | 0.0 | 6.4 | 0.00 | 0.00 | 0.00 | 70 | 1024.3 |
| 20260904034603 | 20 | 0 | 0.0 | 1.6 | 0.00 | 0.00 | 0.00 | 69 | 1024.3 |
| 20260904033059 | 21 | 0 | 0.0 | 4.8 | 0.00 | 0.00 | 0.00 | 69 | 1024.3 |
| 20260904031603 | 21 | 36 | 3.2 | 8.0 | 0.00 | 0.00 | 0.00 | 69 | 1024.4 |
| 20260904030103 | 21 | 5 | 1.6 | 4.8 | 0.00 | 0.00 | 0.00 | 69 | 1024.3 |
| 20260904024557 | 20 | 323 | 0.0 | 3.2 | 0.00 | 0.00 | 0.00 | 68 | 1024.4 |
| 20260904023104 | 21 | 319 | 3.2 | 6.4 | 0.00 | 0.00 | 0.00 | 69 | 1024.3 |
| 20260904021607 | 21 | 0 | 1.6 | 6.4 | 0.00 | 0.00 | 0.00 | 68 | 1024.3 |
| 20260904020101 | 21 | 325 | 3.2 | 8.0 | 0.00 | 0.00 | 0.00 | 70 | 1024.3 |
| 20260904014601 | 21 | 24 | 1.6 | 6.4 | 0.00 | 0.00 | 0.00 | 68 | 1024.4 |
| 20260904013052 | 21 | 19 | 0.0 | 3.2 | 0.00 | 0.00 | 0.00 | 68 | 1024.5 |
| 20260904011606 | 21 | 0 | 0.0 | 1.6 | 0.00 | 0.00 | 0.00 | 67 | 1024.5 |
| 20260904010058 | 21 | 0 | 3.2 | 8.0 | 0.00 | 0.00 | 0.00 | 67 | 1024.6 |
| 20260904004555 | 21 | 15 | 3.2 | 6.4 | 0.00 | 0.00 | 0.00 | 68 | 1024.6 |
| 20260904003053 | 21 | 0 | 0.0 | 0.0 | 0.00 | 0.00 | 0.00 | 67 | 1024.6 |
| 20260904001553 | 21 | 0 | 0.0 | 1.6 | 0.00 | 0.00 | 0.00 | 67 | 1024.6 |
| 20260904000120 | 21 | 323 | 1.6 | 6.4 | 0.00 | 0.00 | 0.00 | 67 | 1024.6 |
| 20260903234556 | 21 | 344 | 3.2 | 6.4 | 0.00 | 0.00 | 0.00 | 66 | 1024.6 |
| 20260903233103 | 21 | 17 | 3.2 | 8.0 | 0.00 | 0.00 | 0.00 | 66 | 1024.7 |
| 20260903231555 | 21 | 346 | 3.2 | 6.4 | 0.00 | 0.00 | 0.00 | 66 | 1024.6 |
| 20260903230110 | 21 | 9 | 1.6 | 8.0 | 0.00 | 0.00 | 0.00 | 66 | 1024.7 |
| 20260903224617 | 21 | 39 | 0.0 | 6.4 | 0.00 | 0.00 | 0.00 | 66 | 1024.5 |
| 20260903223059 | 21 | 355 | 0.0 | 9.7 | 0.00 | 0.00 | 0.00 | 65 | 1024.5 |
| 20260903221608 | 21 | 5 | 1.6 | 6.4 | 0.00 | 0.00 | 0.00 | 66 | 1024.6 |
| 20260903220057 | 21 | 0 | 0.0 | 3.2 | 0.00 | 0.00 | 0.00 | 65 | 1024.6 |
| 20260903214610 | 21 | 0 | 0.0 | 4.8 | 0.00 | 0.00 | 0.00 | 65 | 1024.6 |
| 20260903213102 | 21 | 11 | 6.4 | 12.9 | 0.00 | 0.00 | 0.00 | 64 | 1024.4 |
| 20260903211555 | 22 | 360 | 4.8 | 9.7 | 0.00 | 0.00 | 0.00 | 64 | 1024.5 |
| 20260903210128 | 21 | 9 | 3.2 | 6.4 | 0.00 | 0.00 | 0.00 | 64 | 1024.4 |
| 20260903204601 | 22 | 24 | 4.8 | 9.7 | 0.00 | 0.00 | 0.00 | 64 | 1024.4 |
| 20260903203110 | 22 | 22 | 0.0 | 6.4 | 0.00 | 0.00 | 0.00 | 63 | 1024.4 |
| 20260903201554 | 22 | 0 | 3.2 | 4.8 | 0.00 | 0.00 | 0.00 | 62 | 1024.5 |
| 20260903194559 | 22 | 9 | 6.4 | 9.7 | 0.00 | 0.00 | 0.00 | 61 | 1024.3 |
| 20260903193059 | 23 | 355 | 6.4 | 11.3 | 0.00 | 0.00 | 0.00 | 61 | 1024.4 |
| 20260903191559 | 23 | 252 | 3.2 | 9.7 | 0.00 | 0.00 | 0.00 | 60 | 1024.3 |